Pilot Boat Polaris — POLARIS — position and weather

sailwx.info

Track history (hours):
 
Tides and Currents Weather Stations Pressure Air Temp Water Temp Dewpoint Dewpoint Depression Visibility Wind Speed Wind Dir Waves Ship Positions

Pilot Boat Polaris

Last reported at 2018-Feb-18 01:52 UTC. Time now 2018-Feb-18 04:47 UTC.
Position N 33°45' W 118°13'.

Length 16 m; draft 1.5 m.

Type: Pilot. MMSI: 338037842.

Date/timePositionNaut miles runAvg speedWind from/ knotsBaromVisibWave heightAir tempDewpointWater temp
2018-Feb-18 01:52N 33°45' W 118°13'0 0.0
2018-Feb-18 01:30N 33°45' W 118°13'0 0.0
2018-Feb-18 01:00N 33°45' W 118°13'0 0.0
2018-Feb-18 00:30N 33°45' W 118°13'0 0.0
2018-Feb-18 00:00N 33°45' W 118°13'0 0.0
2018-Feb-17 23:30N 33°45' W 118°13'0 0.0
2018-Feb-17 23:00N 33°45' W 118°13'0 0.0
2018-Feb-17 22:30N 33°45' W 118°13'0 0.0
2018-Feb-17 22:00N 33°45' W 118°13'0 0.0
2018-Feb-17 21:30N 33°45' W 118°13'0 0.0
2018-Feb-17 21:00N 33°45' W 118°13'0 0.0
2018-Feb-17 20:30N 33°45' W 118°13'0 0.0
2018-Feb-17 19:58N 33°45' W 118°13'0 0.0
2018-Feb-17 19:30N 33°45' W 118°13'0 0.0
2018-Feb-17 19:00N 33°45' W 118°13'0 0.0
2018-Feb-17 18:30N 33°45' W 118°13'0 0.0
2018-Feb-17 18:00N 33°45' W 118°13'0 0.0
2018-Feb-17 17:30N 33°45' W 118°13'0 0.0
2018-Feb-17 17:00N 33°45' W 118°13'0 0.0
2018-Feb-17 16:30N 33°45' W 118°13'0 0.0
2018-Feb-17 16:00N 33°45' W 118°13'0 0.0
2018-Feb-17 15:30N 33°45' W 118°13'0 0.0
2018-Feb-17 15:00N 33°45' W 118°13'0 0.0
2018-Feb-17 14:30N 33°45' W 118°13'0 0.0
2018-Feb-17 01:48N 33°45' W 118°13'0 0.0
2018-Feb-17 01:23N 33°45' W 118°13'0 0.0
2018-Feb-17 00:59N 33°45' W 118°13'0 0.0
2018-Feb-17 00:09N 33°45' W 118°13'0 0.0
2018-Feb-17 00:00N 33°45' W 118°13'0 0.0
2018-Feb-16 23:29N 33°45' W 118°13'0 0.0
2018-Feb-16 23:00N 33°45' W 118°13'0 0.0
2018-Feb-16 22:29N 33°45' W 118°13'0 0.0
2018-Feb-16 21:59N 33°45' W 118°13'0 0.0
2018-Feb-16 21:30N 33°45' W 118°13'0 0.0
2018-Feb-16 21:00N 33°45' W 118°13'0 0.0
2018-Feb-16 20:30N 33°45' W 118°13'0 0.0
2018-Feb-16 19:59N 33°45' W 118°13'0 0.0
2018-Feb-16 19:29N 33°45' W 118°13'2 4.4
2018-Feb-16 19:00N 33°43' W 118°11'0 0.8
2018-Feb-16 18:30N 33°44' W 118°12'2 2.5
2018-Feb-16 17:50N 33°45' W 118°13'0 0.0
2018-Feb-16 17:06N 33°45' W 118°13'0 0.0
2018-Feb-16 16:54N 33°45' W 118°13'0 0.0
2018-Feb-16 16:25N 33°45' W 118°13'0 0.0
2018-Feb-16 15:57N 33°45' W 118°13'0 0.0
2018-Feb-16 15:30N 33°45' W 118°13'0 0.0
2018-Feb-16 15:00N 33°45' W 118°13'2 0.1
2018-Feb-16 01:48N 33°44' W 118°11'1 1.8
2018-Feb-16 01:16N 33°43' W 118°10'310.5
2018-Feb-16 01:00N 33°45' W 118°13'0 0.0
2018-Feb-16 00:07N 33°45' W 118°13'0 0.0
2018-Feb-15 23:57N 33°45' W 118°13'0 0.0
2018-Feb-15 23:30N 33°45' W 118°13'0 0.0
2018-Feb-15 22:59N 33°45' W 118°13'6 9.9
2018-Feb-15 22:25N 33°40' W 118°11'612.8
2018-Feb-15 21:59N 33°45' W 118°13'0 0.0
2018-Feb-15 21:29N 33°45' W 118°13'0 0.0
2018-Feb-15 21:00N 33°45' W 118°13'0 0.0
2018-Feb-15 20:28N 33°45' W 118°13'0 0.0
2018-Feb-15 19:57N 33°45' W 118°13'0 0.0
2018-Feb-15 19:23N 33°45' W 118°13'0 0.0
2018-Feb-15 19:00N 33°45' W 118°13'0 0.0
2018-Feb-15 18:30N 33°45' W 118°13'0 0.0
2018-Feb-15 17:55N 33°45' W 118°13'0 0.0
2018-Feb-15 17:18N 33°45' W 118°13'0 0.0
2018-Feb-15 15:30N 33°45' W 118°13'0 0.0
2018-Feb-15 14:58N 33°45' W 118°13'0 0.0
2018-Feb-15 01:45N 33°45' W 118°13'0 0.0
2018-Feb-15 01:30N 33°45' W 118°13'0 0.0
2018-Feb-15 01:00N 33°45' W 118°13'0 0.0
2018-Feb-15 00:24N 33°45' W 118°13'0 0.0
2018-Feb-14 23:50N 33°45' W 118°13'0 0.0
2018-Feb-14 23:26N 33°45' W 118°13'0 0.0
2018-Feb-14 19:56N 33°45' W 118°13'0 0.0
2018-Feb-14 18:55N 33°45' W 118°13'0 0.0
2018-Feb-14 18:07N 33°45' W 118°13'0 0.0
2018-Feb-14 17:46N 33°45' W 118°13'0 0.0
2018-Feb-14 17:17N 33°45' W 118°13'0 0.0
2018-Feb-14 16:55N 33°45' W 118°13'0 0.0
2018-Feb-14 16:29N 33°45' W 118°13'0 0.0
2018-Feb-14 15:56N 33°45' W 118°13'0 0.0
2018-Feb-14 15:30N 33°45' W 118°13'0 0.0
2018-Feb-14 15:00N 33°45' W 118°13'0 0.0
2018-Feb-14 01:45N 33°45' W 118°13'0 0.0
2018-Feb-14 01:30N 33°45' W 118°13'0 0.0
2018-Feb-14 01:00N 33°45' W 118°13'0 0.0
2018-Feb-14 00:30N 33°45' W 118°13'0 0.0
2018-Feb-13 23:56N 33°45' W 118°13'0 0.0
2018-Feb-13 23:29N 33°45' W 118°13'3 6.5
2018-Feb-13 23:00N 33°44' W 118°09'1 1.1
2018-Feb-13 22:29N 33°44' W 118°10'2 5.2
2018-Feb-13 22:00N 33°45' W 118°13'0 0.0
2018-Feb-13 21:25N 33°45' W 118°13'2 3.6
2018-Feb-13 21:00N 33°44' W 118°12'1 2.7
2018-Feb-13 20:30N 33°44' W 118°13'1 2.1
2018-Feb-13 19:59N 33°45' W 118°13'0 0.0
2018-Feb-13 19:30N 33°45' W 118°13'0 0.0
2018-Feb-13 19:00N 33°45' W 118°13'0 0.0
2018-Feb-13 18:30N 33°45' W 118°13'0 0.0
2018-Feb-13 18:00N 33°45' W 118°13'0 0.0
2018-Feb-13 17:29N 33°45' W 118°13'0 0.0
2018-Feb-13 16:50N 33°45' W 118°13'0 0.0
2018-Feb-13 16:30N 33°45' W 118°13'0 0.0
2018-Feb-13 15:57N 33°45' W 118°13'3 5.5
2018-Feb-13 15:27N 33°44' W 118°16'3 6.7
2018-Feb-13 15:00N 33°44' W 118°13'2 0.8
2018-Feb-13 13:03N 33°45' W 118°14'0 1.4
2018-Feb-13 12:50N 33°45' W 118°14'0 0.0
2018-Feb-13 03:08N 33°45' W 118°14'3 1.6
2018-Feb-13 01:29N 33°44' W 118°12'1 3.0
2018-Feb-13 01:00N 33°45' W 118°13'0 0.0
2018-Feb-13 00:23N 33°45' W 118°13'0 0.0
2018-Feb-13 00:00N 33°45' W 118°13'0 0.0
2018-Feb-12 23:30N 33°45' W 118°13'0 0.0
2018-Feb-12 23:00N 33°45' W 118°13'0 0.0
2018-Feb-12 22:30N 33°45' W 118°13'3 6.1
2018-Feb-12 21:59N 33°44' W 118°09'2 5.0
2018-Feb-12 21:30N 33°44' W 118°12'1 1.7
2018-Feb-12 21:00N 33°44' W 118°11'0 0.8
2018-Feb-12 20:29N 33°43' W 118°11'2 3.0
2018-Feb-12 19:42N 33°45' W 118°13'0 0.0
2018-Feb-12 19:21N 33°45' W 118°13'0 0.0
2018-Feb-12 18:54N 33°45' W 118°13'0 0.0
2018-Feb-12 18:30N 33°45' W 118°13'0 0.0
2018-Feb-12 18:00N 33°45' W 118°13'0 0.0
2018-Feb-12 17:30N 33°45' W 118°13'3 5.5
2018-Feb-12 17:00N 33°44' W 118°16'1 1.0
2018-Feb-12 16:30N 33°44' W 118°16'3 5.2
2018-Feb-12 16:00N 33°43' W 118°13'1 2.7
2018-Feb-12 15:30N 33°45' W 118°13'2 2.4
2018-Feb-12 14:33N 33°43' W 118°11'118.7
2018-Feb-12 14:30N 33°44' W 118°12'1 0.1
2018-Feb-12 01:41N 33°44' W 118°11'1 4.4
2018-Feb-12 01:25N 33°44' W 118°12'1 2.2
2018-Feb-12 00:46N 33°44' W 118°10'1 2.1
2018-Feb-12 00:30N 33°44' W 118°11'1 1.1
2018-Feb-11 23:53N 33°44' W 118°12'1 3.8
2018-Feb-11 23:30N 33°45' W 118°13'1 1.3
2018-Feb-11 23:00N 33°44' W 118°12'1 1.5
2018-Feb-11 22:28N 33°44' W 118°12'3 7.2
2018-Feb-11 22:00N 33°41' W 118°11'4 8.3
2018-Feb-11 21:30N 33°45' W 118°13'3 6.5
2018-Feb-11 20:58N 33°42' W 118°11'3 6.7
2018-Feb-11 20:28N 33°45' W 118°13'0 0.0
2018-Feb-11 20:00N 33°45' W 118°13'0 0.0
2018-Feb-11 19:30N 33°45' W 118°13'0 0.0
2018-Feb-11 19:00N 33°45' W 118°13'0 0.0
2018-Feb-11 18:30N 33°45' W 118°13'0 0.0
2018-Feb-11 17:57N 33°45' W 118°13'0 0.0
2018-Feb-11 17:26N 33°45' W 118°13'0 0.0
2018-Feb-11 16:53N 33°45' W 118°13'0 0.0
2018-Feb-11 16:30N 33°45' W 118°13'0 0.0
2018-Feb-11 16:00N 33°45' W 118°13'0 0.0
2018-Feb-11 15:30N 33°45' W 118°13'0 0.0
2018-Feb-11 14:44N 33°45' W 118°13'0 0.0
2018-Feb-11 01:42N 33°45' W 118°13'211.2
2018-Feb-11 01:30N 33°43' W 118°11'1 1.0
2018-Feb-11 00:59N 33°43' W 118°11'2 4.9
2018-Feb-11 00:29N 33°45' W 118°13'0 0.0
2018-Feb-10 23:59N 33°45' W 118°13'0 0.0
2018-Feb-10 23:30N 33°45' W 118°13'0 0.0
2018-Feb-10 23:00N 33°45' W 118°13'0 0.0
2018-Feb-10 22:28N 33°45' W 118°13'0 0.0
2018-Feb-10 21:59N 33°45' W 118°13'0 0.0
2018-Feb-10 21:28N 33°45' W 118°13'0 0.0
2018-Feb-10 20:54N 33°45' W 118°13'0 0.0
2018-Feb-10 20:24N 33°45' W 118°13'0 0.0
2018-Feb-10 19:57N 33°45' W 118°13'0 0.0
2018-Feb-10 19:23N 33°45' W 118°13'3 7.2
2018-Feb-10 19:00N 33°44' W 118°16'0 0.2
2018-Feb-10 18:30N 33°43' W 118°16'3 4.4
2018-Feb-10 17:53N 33°45' W 118°13'0 0.0
2018-Feb-10 17:28N 33°45' W 118°13'0 0.0
2018-Feb-10 17:00N 33°45' W 118°13'0 0.0
2018-Feb-10 16:28N 33°45' W 118°13'0 0.0
2018-Feb-10 15:56N 33°45' W 118°13'1 0.1
2018-Feb-10 01:43N 33°44' W 118°12'1 4.6
2018-Feb-10 01:24N 33°45' W 118°13'0 0.0
2018-Feb-10 00:44N 33°45' W 118°13'1 6.1
2018-Feb-10 00:30N 33°44' W 118°14'2 3.9
2018-Feb-10 00:00N 33°44' W 118°11'2 3.0
2018-Feb-09 23:25N 33°45' W 118°13'  
Track history (hours):
 
Tides and Currents Weather Stations Pressure Air Temp Water Temp Dewpoint Dewpoint Depression Visibility Wind Speed Wind Dir Waves Ship Positions

Pilot Boat Polaris

Last reported at 2018-Feb-18 01:52 UTC. Time now 2018-Feb-18 04:47 UTC.
Position N 33°45' W 118°13'.

Length 16 m; draft 1.5 m.

Type: Pilot. MMSI: 338037842.

Date/timePositionNaut miles runAvg speedWind from/ knotsBaromVisibWave heightAir tempDewpointWater temp
2018-Feb-18 01:52N 33°45' W 118°13'0 0.0
2018-Feb-18 01:30N 33°45' W 118°13'0 0.0
2018-Feb-18 01:00N 33°45' W 118°13'0 0.0
2018-Feb-18 00:30N 33°45' W 118°13'0 0.0
2018-Feb-18 00:00N 33°45' W 118°13'0 0.0
2018-Feb-17 23:30N 33°45' W 118°13'0 0.0
2018-Feb-17 23:00N 33°45' W 118°13'0 0.0
2018-Feb-17 22:30N 33°45' W 118°13'0 0.0
2018-Feb-17 22:00N 33°45' W 118°13'0 0.0
2018-Feb-17 21:30N 33°45' W 118°13'0 0.0
2018-Feb-17 21:00N 33°45' W 118°13'0 0.0
2018-Feb-17 20:30N 33°45' W 118°13'0 0.0
2018-Feb-17 19:58N 33°45' W 118°13'0 0.0
2018-Feb-17 19:30N 33°45' W 118°13'0 0.0
2018-Feb-17 19:00N 33°45' W 118°13'0 0.0
2018-Feb-17 18:30N 33°45' W 118°13'0 0.0
2018-Feb-17 18:00N 33°45' W 118°13'0 0.0
2018-Feb-17 17:30N 33°45' W 118°13'0 0.0
2018-Feb-17 17:00N 33°45' W 118°13'0 0.0
2018-Feb-17 16:30N 33°45' W 118°13'0 0.0
2018-Feb-17 16:00N 33°45' W 118°13'0 0.0
2018-Feb-17 15:30N 33°45' W 118°13'0 0.0
2018-Feb-17 15:00N 33°45' W 118°13'0 0.0
2018-Feb-17 14:30N 33°45' W 118°13'0 0.0
2018-Feb-17 01:48N 33°45' W 118°13'0 0.0
2018-Feb-17 01:23N 33°45' W 118°13'0 0.0
2018-Feb-17 00:59N 33°45' W 118°13'0 0.0
2018-Feb-17 00:09N 33°45' W 118°13'0 0.0
2018-Feb-17 00:00N 33°45' W 118°13'0 0.0
2018-Feb-16 23:29N 33°45' W 118°13'0 0.0
2018-Feb-16 23:00N 33°45' W 118°13'0 0.0
2018-Feb-16 22:29N 33°45' W 118°13'0 0.0
2018-Feb-16 21:59N 33°45' W 118°13'0 0.0
2018-Feb-16 21:30N 33°45' W 118°13'0 0.0
2018-Feb-16 21:00N 33°45' W 118°13'0 0.0
2018-Feb-16 20:30N 33°45' W 118°13'0 0.0
2018-Feb-16 19:59N 33°45' W 118°13'0 0.0
2018-Feb-16 19:29N 33°45' W 118°13'2 4.4
2018-Feb-16 19:00N 33°43' W 118°11'0 0.8
2018-Feb-16 18:30N 33°44' W 118°12'2 2.5
2018-Feb-16 17:50N 33°45' W 118°13'0 0.0
2018-Feb-16 17:06N 33°45' W 118°13'0 0.0
2018-Feb-16 16:54N 33°45' W 118°13'0 0.0
2018-Feb-16 16:25N 33°45' W 118°13'0 0.0
2018-Feb-16 15:57N 33°45' W 118°13'0 0.0
2018-Feb-16 15:30N 33°45' W 118°13'0 0.0
2018-Feb-16 15:00N 33°45' W 118°13'2 0.1
2018-Feb-16 01:48N 33°44' W 118°11'1 1.8
2018-Feb-16 01:16N 33°43' W 118°10'310.5
2018-Feb-16 01:00N 33°45' W 118°13'0 0.0
2018-Feb-16 00:07N 33°45' W 118°13'0 0.0
2018-Feb-15 23:57N 33°45' W 118°13'0 0.0
2018-Feb-15 23:30N 33°45' W 118°13'0 0.0
2018-Feb-15 22:59N 33°45' W 118°13'6 9.9
2018-Feb-15 22:25N 33°40' W 118°11'612.8
2018-Feb-15 21:59N 33°45' W 118°13'0 0.0
2018-Feb-15 21:29N 33°45' W 118°13'0 0.0
2018-Feb-15 21:00N 33°45' W 118°13'0 0.0
2018-Feb-15 20:28N 33°45' W 118°13'0 0.0
2018-Feb-15 19:57N 33°45' W 118°13'0 0.0
2018-Feb-15 19:23N 33°45' W 118°13'0 0.0
2018-Feb-15 19:00N 33°45' W 118°13'0 0.0
2018-Feb-15 18:30N 33°45' W 118°13'0 0.0
2018-Feb-15 17:55N 33°45' W 118°13'0 0.0
2018-Feb-15 17:18N 33°45' W 118°13'0 0.0
2018-Feb-15 15:30N 33°45' W 118°13'0 0.0
2018-Feb-15 14:58N 33°45' W 118°13'0 0.0
2018-Feb-15 01:45N 33°45' W 118°13'0 0.0
2018-Feb-15 01:30N 33°45' W 118°13'0 0.0
2018-Feb-15 01:00N 33°45' W 118°13'0 0.0
2018-Feb-15 00:24N 33°45' W 118°13'0 0.0
2018-Feb-14 23:50N 33°45' W 118°13'0 0.0
2018-Feb-14 23:26N 33°45' W 118°13'0 0.0
2018-Feb-14 19:56N 33°45' W 118°13'0 0.0
2018-Feb-14 18:55N 33°45' W 118°13'0 0.0
2018-Feb-14 18:07N 33°45' W 118°13'0 0.0
2018-Feb-14 17:46N 33°45' W 118°13'0 0.0
2018-Feb-14 17:17N 33°45' W 118°13'0 0.0
2018-Feb-14 16:55N 33°45' W 118°13'0 0.0
2018-Feb-14 16:29N 33°45' W 118°13'0 0.0
2018-Feb-14 15:56N 33°45' W 118°13'0 0.0
2018-Feb-14 15:30N 33°45' W 118°13'0 0.0
2018-Feb-14 15:00N 33°45' W 118°13'0 0.0
2018-Feb-14 01:45N 33°45' W 118°13'0 0.0
2018-Feb-14 01:30N 33°45' W 118°13'0 0.0
2018-Feb-14 01:00N 33°45' W 118°13'0 0.0
2018-Feb-14 00:30N 33°45' W 118°13'0 0.0
2018-Feb-13 23:56N 33°45' W 118°13'0 0.0
2018-Feb-13 23:29N 33°45' W 118°13'3 6.5
2018-Feb-13 23:00N 33°44' W 118°09'1 1.1
2018-Feb-13 22:29N 33°44' W 118°10'2 5.2
2018-Feb-13 22:00N 33°45' W 118°13'0 0.0
2018-Feb-13 21:25N 33°45' W 118°13'2 3.6
2018-Feb-13 21:00N 33°44' W 118°12'1 2.7
2018-Feb-13 20:30N 33°44' W 118°13'1 2.1
2018-Feb-13 19:59N 33°45' W 118°13'0 0.0
2018-Feb-13 19:30N 33°45' W 118°13'0 0.0
2018-Feb-13 19:00N 33°45' W 118°13'0 0.0
2018-Feb-13 18:30N 33°45' W 118°13'0 0.0
2018-Feb-13 18:00N 33°45' W 118°13'0 0.0
2018-Feb-13 17:29N 33°45' W 118°13'0 0.0
2018-Feb-13 16:50N 33°45' W 118°13'0 0.0
2018-Feb-13 16:30N 33°45' W 118°13'0 0.0
2018-Feb-13 15:57N 33°45' W 118°13'3 5.5
2018-Feb-13 15:27N 33°44' W 118°16'3 6.7
2018-Feb-13 15:00N 33°44' W 118°13'2 0.8
2018-Feb-13 13:03N 33°45' W 118°14'0 1.4
2018-Feb-13 12:50N 33°45' W 118°14'0 0.0
2018-Feb-13 03:08N 33°45' W 118°14'3 1.6
2018-Feb-13 01:29N 33°44' W 118°12'1 3.0
2018-Feb-13 01:00N 33°45' W 118°13'0 0.0
2018-Feb-13 00:23N 33°45' W 118°13'0 0.0
2018-Feb-13 00:00N 33°45' W 118°13'0 0.0
2018-Feb-12 23:30N 33°45' W 118°13'0 0.0
2018-Feb-12 23:00N 33°45' W 118°13'0 0.0
2018-Feb-12 22:30N 33°45' W 118°13'3 6.1
2018-Feb-12 21:59N 33°44' W 118°09'2 5.0
2018-Feb-12 21:30N 33°44' W 118°12'1 1.7
2018-Feb-12 21:00N 33°44' W 118°11'0 0.8
2018-Feb-12 20:29N 33°43' W 118°11'2 3.0
2018-Feb-12 19:42N 33°45' W 118°13'0 0.0
2018-Feb-12 19:21N 33°45' W 118°13'0 0.0
2018-Feb-12 18:54N 33°45' W 118°13'0 0.0
2018-Feb-12 18:30N 33°45' W 118°13'0 0.0
2018-Feb-12 18:00N 33°45' W 118°13'0 0.0
2018-Feb-12 17:30N 33°45' W 118°13'3 5.5
2018-Feb-12 17:00N 33°44' W 118°16'1 1.0
2018-Feb-12 16:30N 33°44' W 118°16'3 5.2
2018-Feb-12 16:00N 33°43' W 118°13'1 2.7
2018-Feb-12 15:30N 33°45' W 118°13'2 2.4
2018-Feb-12 14:33N 33°43' W 118°11'118.7
2018-Feb-12 14:30N 33°44' W 118°12'1 0.1
2018-Feb-12 01:41N 33°44' W 118°11'1 4.4
2018-Feb-12 01:25N 33°44' W 118°12'1 2.2
2018-Feb-12 00:46N 33°44' W 118°10'1 2.1
2018-Feb-12 00:30N 33°44' W 118°11'1 1.1
2018-Feb-11 23:53N 33°44' W 118°12'1 3.8
2018-Feb-11 23:30N 33°45' W 118°13'1 1.3
2018-Feb-11 23:00N 33°44' W 118°12'1 1.5
2018-Feb-11 22:28N 33°44' W 118°12'3 7.2
2018-Feb-11 22:00N 33°41' W 118°11'4 8.3
2018-Feb-11 21:30N 33°45' W 118°13'3 6.5
2018-Feb-11 20:58N 33°42' W 118°11'3 6.7
2018-Feb-11 20:28N 33°45' W 118°13'0 0.0
2018-Feb-11 20:00N 33°45' W 118°13'0 0.0
2018-Feb-11 19:30N 33°45' W 118°13'0 0.0
2018-Feb-11 19:00N 33°45' W 118°13'0 0.0
2018-Feb-11 18:30N 33°45' W 118°13'0 0.0
2018-Feb-11 17:57N 33°45' W 118°13'0 0.0
2018-Feb-11 17:26N 33°45' W 118°13'0 0.0
2018-Feb-11 16:53N 33°45' W 118°13'0 0.0
2018-Feb-11 16:30N 33°45' W 118°13'0 0.0
2018-Feb-11 16:00N 33°45' W 118°13'0 0.0
2018-Feb-11 15:30N 33°45' W 118°13'0 0.0
2018-Feb-11 14:44N 33°45' W 118°13'0 0.0
2018-Feb-11 01:42N 33°45' W 118°13'211.2
2018-Feb-11 01:30N 33°43' W 118°11'1 1.0
2018-Feb-11 00:59N 33°43' W 118°11'2 4.9
2018-Feb-11 00:29N 33°45' W 118°13'0 0.0
2018-Feb-10 23:59N 33°45' W 118°13'0 0.0
2018-Feb-10 23:30N 33°45' W 118°13'0 0.0
2018-Feb-10 23:00N 33°45' W 118°13'0 0.0
2018-Feb-10 22:28N 33°45' W 118°13'0 0.0
2018-Feb-10 21:59N 33°45' W 118°13'0 0.0
2018-Feb-10 21:28N 33°45' W 118°13'0 0.0
2018-Feb-10 20:54N 33°45' W 118°13'0 0.0
2018-Feb-10 20:24N 33°45' W 118°13'0 0.0
2018-Feb-10 19:57N 33°45' W 118°13'0 0.0
2018-Feb-10 19:23N 33°45' W 118°13'3 7.2
2018-Feb-10 19:00N 33°44' W 118°16'0 0.2
2018-Feb-10 18:30N 33°43' W 118°16'3 4.4
2018-Feb-10 17:53N 33°45' W 118°13'0 0.0
2018-Feb-10 17:28N 33°45' W 118°13'0 0.0
2018-Feb-10 17:00N 33°45' W 118°13'0 0.0
2018-Feb-10 16:28N 33°45' W 118°13'0 0.0
2018-Feb-10 15:56N 33°45' W 118°13'1 0.1
2018-Feb-10 01:43N 33°44' W 118°12'1 4.6
2018-Feb-10 01:24N 33°45' W 118°13'0 0.0
2018-Feb-10 00:44N 33°45' W 118°13'1 6.1
2018-Feb-10 00:30N 33°44' W 118°14'2 3.9
2018-Feb-10 00:00N 33°44' W 118°11'2 3.0
2018-Feb-09 23:25N 33°45' W 118°13'  

Dump ship's entire track history